Theta_e
307 307 307 307 307 307 306 306 307 306 306 306 307 307 307 307 306 303 300 302 298 296 297 299 299 295 295 294 290 292 289 290 288 283 284 285 283 287 287 289 289 287 286 285 287 286 282 296 297 293 298 303 306 306
306 306 306 307 307 306 306 306 306 305 307 306 306 307 307 308 308 306 297 302 308 300 297 303 303 303 301 300 295 293 290 291 290 288 287 288 286 286 286 283 292 286 289 286 287 287 296 299 298 302 303 303 304 306
306 307 306 306 306 306 306 306 305 305 306 306 306 307 307 308 306 305 300 300 300 298 297 298 299 305 307 305 304 291 294 295 293 296 291 291 286 290 284 285 288 292 296 290 291 294 295 298 300 301 303 304 306 307
306 306 306 306 305 305 305 305 305 304 305 306 306 306 307 307 307 305 299 300 301 299 291 294 306 302 309 307 304 303 298 299 297 295 291 290 288 295 290 291 290 293 295 292 292 295 297 299 300 302 304 304 306 307
305 304 303 304 305 305 305 305 305 304 305 306 306 306 306 306 306 304 302 302 303 299 291 294 300 305 306 305 304 302 300 296 294 293 293 291 296 293 295 292 290 294 292 289 289 295 295 296 302 304 302 302 305 306
303 302 302 303 303 303 304 304 304 305 305 306 306 305 306 305 306 300 299 304 305 306 295 289 300 300 306 306 304 302 302 298 295 295 295 296 299 294 289 288 294 295 298 297 294 299 299 301 302 303 301 303 305 307
301 301 302 302 302 302 303 303 303 304 305 306 306 306 306 306 303 298 299 304 307 307 296 291 293 303 306 305 304 302 303 300 299 299 295 295 295 298 290 287 295 296 297 298 300 299 297 301 298 302 303 304 305 308
300 300 300 300 301 300 301 301 303 304 305 305 305 306 305 305 304 301 306 308 307 304 300 290 290 295 306 299 297 303 298 300 299 296 297 295 295 294 287 293 295 299 298 298 300 301 301 302 303 304 304 304 303 305
299 299 299 300 300 301 301 302 303 304 304 305 305 305 304 302 303 304 308 308 306 302 293 293 288 288 304 298 299 298 300 292 300 296 296 294 291 286 292 294 295 295 295 298 300 302 303 303 303 304 304 305 305 306
298 298 299 299 299 300 301 302 303 304 304 304 304 302 299 301 308 308 303 299 298 298 298 291 296 292 298 298 295 294 297 293 290 295 298 292 291 297 299 299 299 299 299 299 296 297 300 301 302 303 303 305 306 307
298 298 298 298 299 299 300 301 302 303 304 303 299 298 301 308 302 301 295 293 294 291 295 295 295 292 303 295 292 295 291 293 288 292 293 290 289 294 298 300 301 301 302 301 299 300 302 301 302 303 303 305 305 306
297 297 297 297 298 299 299 300 301 301 299 298 297 300 301 298 296 292 292 295 294 292 297 296 298 300 299 300 293 293 290 292 287 297 292 287 294 298 298 300 300 301 301 301 301 301 303 302 303 303 303 302 303 304
296 296 297 298 298 299 300 302 302 303 302 302 296 293 292 293 287 287 286 291 293 299 300 300 296 299 299 298 293 291 287 286 296 289 288 292 298 298 299 301 301 301 300 303 303 303 305 304 304 303 302 303 303 303
296 296 297 298 298 300 302 302 302 301 299 295 293 286 288 287 291 292 293 296 301 301 299 298 297 297 297 294 294 287 291 291 285 283 285 294 298 301 302 302 300 300 301 301 304 303 304 304 303 303 302 302 301 300
296 296 297 300 301 300 300 301 301 301 297 293 295 287 290 295 298 299 301 300 302 302 299 297 297 297 294 293 294 291 286 284 284 283 291 296 299 301 300 301 301 300 300 300 302 300 301 303 303 303 303 302 301 300
296 296 298 299 298 298 299 300 300 300 297 295 294 292 296 295 296 299 300 300 304 302 302 299 295 292 292 292 289 287 285 280 286 292 298 300 300 302 301 302 302 301 301 300 303 302 302 303 302 303 304 304 301 300
295 294 300 298 298 298 299 297 298 295 293 293 292 297 296 295 295 297 299 301 303 301 295 297 292 291 294 290 288 289 286 288 296 298 300 302 300 303 302 302 304 302 302 301 302 303 303 303 302 302 299 300 302 300
292 296 298 298 297 296 298 299 295 295 290 292 289 292 294 296 295 297 300 303 303 301 299 295 298 292 288 287 288 292 296 299 301 299 301 302 303 303 303 301 305 303 301 301 301 304 302 302 300 298 299 301 300 299
295 296 297 298 297 292 291 294 296 289 291 294 295 296 297 298 300 301 301 304 304 305 301 298 294 291 291 296 296 298 299 300 298 300 300 302 304 302 303 304 304 302 301 302 302 302 301 301 300 300 299 298 297 297
296 297 298 299 297 292 288 290 299 294 290 294 294 293 295 296 299 300 300 303 301 300 297 295 294 296 296 299 300 299 300 302 301 300 299 301 304 304 303 301 301 301 301 302 301 301 302 302 303 301 299 297 296 295
295 297 298 298 296 294 291 290 291 294 295 292 295 294 294 297 296 296 296 299 299 298 296 299 299 301 303 303 304 303 303 302 300 301 300 300 304 305 303 303 304 302 301 300 301 300 299 297 301 301 300 298 297 297
293 296 294 295 290 291 291 293 290 293 290 291 290 290 289 289 291 292 296 293 293 298 300 300 302 302 302 302 303 304 305 304 304 301 299 299 301 301 301 302 300 300 300 300 300 300 299 298 299 302 299 298 297 296
296 295 292 291 285 287 285 293 287 289 286 288 291 288 289 290 293 298 293 296 296 299 300 302 303 304 303 304 306 305 305 304 302 301 301 302 303 304 304 303 303 300 299 300 301 301 299 295 295 300 299 299 298 296
296 289 285 285 285 282 289 286 290 288 289 287 286 285 288 290 294 291 289 292 296 300 300 302 304 301 303 303 302 302 303 304 302 302 303 301 301 302 303 304 303 303 303 301 301 301 301 299 297 298 298 297 296 295
282 282 284 280 287 284 282 283 284 284 282 285 284 285 287 291 286 287 287 291 296 298 301 302 301 301 300 300 301 302 305 303 301 299 303 303 303 303 304 303 302 302 302 302 300 300 300 299 299 298 297 295 295 294
278 283 282 283 284 282 282 280 282 282 285 284 285 289 290 287 285 285 290 292 294 294 296 296 296 299 299 300 300 300 302 304 305 301 302 304 303 302 301 300 298 299 303 301 301 300 299 298 298 296 294 292 289 294
277 279 284 287 285 285 283 284 285 283 282 281 284 285 286 283 284 287 293 294 292 294 297 299 298 296 299 299 301 302 303 304 303 304 304 305 306 306 304 301 300 300 301 301 301 301 299 298 298 297 296 295 294 293
283 283 279 282 283 284 281 282 282 281 283 287 287 284 282 282 284 291 294 295 296 296 295 297 299 299 299 299 299 301 301 302 304 304 304 305 306 306 305 302 300 289 300 300 300 300 300 299 298 298 296 294 293 293
282 284 284 281 282 282 283 282 282 286 289 287 284 284 286 291 293 293 296 297 300 297 294 295 296 298 298 300 301 298 301 301 300 298 297 297 298 301 301 299 300 300 296 292 286 294 298 298 298 297 297 295 294 293
282 286 282 282 281 280 284 287 286 289 290 290 290 289 290 291 289 291 290 291 291 291 292 292 292 291 292 293 294 295 295 295 295 296 295 295 297 301 302 300 301 300 298 296 293 291 286 293 292 295 295 294 291 288
286 286 284 284 283 286 288 290 291 291 291 290 291 289 288 286 287 288 288 289 289 289 288 288 288 289 288 288 290 291 290 292 293 294 293 297 298 299 301 302 301 300 299 297 295 294 293 293 293 293 293 292 291 289
285 284 284 282 284 289 291 289 288 288 288 289 288 290 290 287 282 285 287 287 286 285 285 286 286 286 289 290 291 292 288 290 289 289 291 293 293 295 300 303 302 301 300 299 299 295 294 294 291 291 290 290 290 288
287 287 287 286 285 286 289 288 287 286 287 287 287 287 285 282 279 284 288 289 286 284 285 287 289 289 290 291 291 291 289 290 288 286 286 286 286 288 294 297 299 300 299 298 298 297 295 293 291 290 289 287 286 284
Wind_Speed
18 18 18 18 18 18 18 18 18 19 21 19 18 18 18 16 12 6 8 9 4 4 13 15 15 15 15 11 3 5 8 5 4 7 4 4 2 4 5 4 8 4 4 4 6 3 5 17 8 11 9 11 9 12
18 18 18 17 17 17 18 18 18 20 18 18 18 18 18 17 13 9 5 6 3 6 9 17 22 25 19 22 4 1 2 5 3 3 4 4 2 4 6 4 6 4 2 3 5 3 3 10 11 11 10 15 10 12
19 19 17 17 17 17 18 18 21 21 19 19 18 19 18 17 14 9 6 7 5 4 9 4 7 10 12 13 7 4 3 3 3 3 3 3 3 2 2 3 3 3 4 2 2 6 6 12 16 19 19 14 14 16
17 17 16 17 17 17 17 18 19 22 21 19 19 19 19 18 15 13 6 5 4 3 4 7 9 9 4 10 10 5 2 2 2 3 3 3 3 4 1 2 2 4 5 8 2 7 2 3 7 13 18 14 15 15
15 15 16 17 18 18 17 19 19 22 20 21 21 21 19 19 17 11 8 8 9 4 4 8 19 8 9 11 12 8 5 3 2 3 3 3 4 0 4 3 3 5 4 3 3 9 7 9 5 11 16 14 12 10
14 17 18 18 19 18 17 18 20 20 20 23 23 22 21 20 14 6 4 6 9 7 3 5 6 8 9 13 11 11 7 4 3 3 3 4 5 3 3 1 2 6 9 5 3 7 9 10 9 9 12 17 14 13
16 17 19 21 20 19 19 18 21 22 22 22 22 21 19 15 5 5 3 2 5 4 2 5 5 4 6 5 4 5 8 4 4 3 3 3 4 3 2 2 4 2 5 10 9 9 7 9 8 14 11 13 9 10
17 18 19 19 19 19 20 21 22 22 23 25 24 21 19 19 10 6 6 7 1 2 2 3 5 5 6 4 3 4 4 5 4 4 3 3 4 3 2 2 3 4 3 7 9 7 8 9 10 9 9 9 10 11
17 18 19 19 19 19 19 21 21 22 25 27 26 27 4 3 3 1 2 1 1 2 3 3 3 4 4 3 2 2 4 2 4 4 3 3 2 1 3 3 3 2 1 7 8 8 9 10 11 12 13 14 13 13
17 18 19 19 19 19 20 20 21 23 27 30 9 3 2 1 6 5 1 3 1 2 3 5 5 6 3 3 3 1 2 3 2 5 1 2 2 6 6 6 4 7 4 5 7 9 10 10 10 10 8 9 10 11
17 18 19 19 20 20 20 20 21 23 15 4 5 4 5 2 3 4 4 5 5 5 6 6 9 7 3 3 2 1 2 4 2 2 3 3 2 2 1 6 7 8 7 4 2 1 4 5 6 8 9 11 11 11
17 19 20 20 20 20 19 19 19 9 6 7 7 7 4 3 3 5 4 4 7 5 7 4 5 5 2 2 2 2 2 4 4 2 5 3 3 4 2 5 5 5 9 8 5 9 8 9 7 7 8 9 10 10
18 19 19 20 20 20 19 14 10 14 14 2 2 3 3 4 5 7 6 5 4 4 5 5 3 4 2 3 1 0 1 5 5 4 2 2 5 5 2 1 5 6 7 9 9 9 9 4 7 7 7 7 8 9
20 21 21 21 21 17 9 11 12 9 4 4 3 5 6 6 7 7 7 6 3 5 3 2 3 5 4 4 3 3 4 2 4 2 1 4 6 7 5 5 4 5 7 7 7 10 8 4 7 7 6 7 8 10
20 23 23 13 8 12 14 15 14 3 3 5 5 6 8 9 9 8 9 9 7 4 2 2 2 4 2 1 2 1 2 2 5 4 2 4 5 8 4 2 4 5 6 5 6 7 7 10 6 6 5 5 8 10
21 21 3 9 13 17 17 15 8 5 4 5 8 7 9 8 8 7 4 4 7 1 3 2 1 3 4 4 3 5 3 5 4 3 3 5 12 7 6 6 2 4 5 3 4 7 7 7 7 6 8 7 8 7
19 3 12 19 21 22 18 5 3 7 6 7 6 7 10 11 11 11 9 4 4 5 3 2 1 6 3 2 3 4 6 5 4 4 3 3 2 0 5 4 7 3 5 3 3 7 9 7 6 7 6 7 5 7
9 10 18 20 17 13 3 4 4 6 10 7 6 8 8 9 10 11 10 7 2 5 8 6 5 4 4 4 4 5 4 4 5 2 4 3 7 6 7 6 5 5 5 1 1 7 7 7 6 4 3 5 6 8
11 13 22 24 12 4 4 4 4 6 6 6 8 9 10 9 9 10 8 7 3 5 2 4 3 4 6 5 2 1 2 4 4 4 5 9 8 5 4 6 5 7 5 4 8 4 5 7 5 4 4 4 6 6
19 19 20 17 3 3 5 6 5 6 5 5 6 8 8 8 8 7 7 4 2 7 5 5 5 4 4 1 5 6 8 6 2 2 1 3 1 6 1 3 5 5 5 3 5 7 5 4 5 5 4 5 5 5
14 7 11 7 3 6 5 5 5 6 6 6 7 8 8 7 7 6 6 5 5 0 4 3 6 7 7 5 3 3 3 7 7 7 7 4 4 2 3 1 2 4 2 5 8 3 3 4 5 5 7 5 5 5
6 14 7 4 5 5 6 6 6 5 6 7 9 8 6 7 9 10 8 8 7 4 6 11 9 9 9 11 5 3 2 3 5 7 7 9 7 5 4 6 3 3 4 5 5 6 4 3 5 8 7 7 7 5
14 5 4 5 6 6 6 5 6 6 6 4 6 10 6 7 8 9 8 8 9 9 8 8 10 13 9 6 4 6 7 7 3 6 7 7 7 7 7 5 4 5 3 3 5 6 5 4 6 9 7 6 6 7
3 4 4 5 8 6 4 6 5 7 7 9 11 18 15 9 8 7 10 9 7 7 7 5 2 3 3 2 3 3 4 5 4 4 8 7 3 5 5 4 2 5 4 4 5 6 5 5 6 7 7 6 6 7
5 5 5 7 5 5 5 8 13 12 16 16 18 14 8 8 10 14 13 8 9 11 9 6 3 3 2 4 6 4 5 3 1 4 4 6 6 6 4 3 4 2 5 8 5 6 5 5 7 8 6 5 8 8
5 5 6 5 4 6 7 13 13 12 10 7 4 5 4 6 8 6 3 8 8 8 11 9 11 9 2 3 4 4 3 4 5 3 1 7 9 9 8 8 6 4 6 5 9 8 8 7 9 11 8 7 8 8
6 7 5 6 8 10 8 8 10 8 12 11 8 9 5 4 4 6 3 7 6 7 9 9 9 14 8 4 5 3 3 3 2 2 3 2 8 3 6 7 8 7 6 6 8 9 10 9 11 10 9 7 7 6
9 6 13 10 11 9 13 12 13 14 9 5 4 4 6 2 2 2 4 1 3 6 11 11 10 13 12 10 8 10 10 8 6 5 4 5 5 5 7 1 5 8 5 5 6 6 7 9 7 8 12 10 9 6
7 6 11 16 14 12 10 11 11 9 7 10 10 8 2 1 3 5 3 5 3 6 8 8 8 10 10 11 10 11 11 10 11 11 10 6 8 5 5 7 9 8 7 8 8 8 8 7 8 7 12 10 8 7
12 10 11 14 16 15 13 9 11 11 8 10 8 9 3 5 6 8 9 10 10 10 9 8 8 9 10 10 10 9 10 10 9 6 5 5 5 6 11 6 9 9 9 10 8 6 7 9 8 9 11 9 8 6
7 6 9 11 13 11 10 10 7 8 10 9 8 7 2 6 5 8 11 9 8 8 8 8 8 7 7 6 8 8 7 8 10 11 8 4 4 8 10 6 3 9 8 11 10 8 7 7 6 7 12 10 10 8
6 5 7 12 10 7 7 6 6 7 8 7 6 7 1 5 5 3 8 8 8 9 9 8 6 7 7 6 6 5 6 5 7 8 11 8 7 7 8 6 5 5 9 10 7 4 8 10 9 9 9 11 13 11
9 10 9 6 3 3 1 4 3 3 5 4 1 5 5 5 6 5 4 6 6 7 6 5 5 5 5 5 6 5 5 5 8 10 11 13 14 12 10 10 8 6 9 11 9 3 8 12 11 12 13 14 13 12
Wind_Direction
296 298 299 299 300 301 304 307 311 314 317 319 320 321 321 318 317 319 284 277 241 264 282 270 277 279 313 299 294 318 331 7 321 9 341 358 344 340 313 356 337 15 322 343 315 43 25 343 346 30 315 310 293 306
298 298 297 298 300 302 303 305 309 313 305 315 315 316 316 315 314 309 266 285 322 248 275 292 276 266 250 249 220 137 252 275 324 329 3 313 327 319 331 356 343 42 353 322 4 19 354 353 349 315 321 272 291 8
301 303 303 301 301 299 300 302 309 311 306 309 312 311 311 310 312 299 280 284 288 263 279 255 271 263 217 226 155 166 211 259 250 49 300 282 283 263 340 329 275 323 41 19 342 28 54 18 341 335 318 324 349 2
303 306 307 310 310 307 303 301 303 308 310 303 306 307 308 309 310 302 273 259 241 277 275 281 323 318 327 132 163 185 128 159 277 276 250 267 250 236 137 259 358 302 332 324 253 347 221 284 341 307 305 337 351 3
305 313 313 309 306 304 306 306 303 310 307 303 304 309 312 312 310 297 257 233 230 239 284 300 301 294 178 173 176 180 173 176 258 258 220 242 252 131 95 272 29 343 335 8 328 344 315 314 153 297 315 330 339 355
319 317 313 311 308 309 311 308 306 304 304 304 305 307 308 313 320 297 273 184 213 201 291 302 308 282 172 186 178 178 195 156 223 282 251 261 249 54 104 105 338 5 348 328 285 303 305 320 349 322 318 317 340 324
309 307 306 304 309 311 313 314 309 309 309 306 301 299 298 296 303 243 324 323 306 137 248 279 280 257 197 165 199 186 194 198 216 260 248 244 296 111 61 53 28 345 328 324 343 337 323 337 306 305 296 296 317 330
309 307 307 309 312 314 314 309 304 308 307 302 299 298 294 294 283 245 245 235 258 233 239 269 274 274 165 227 224 179 181 180 221 237 280 268 312 85 79 83 357 7 345 321 345 318 294 295 291 309 355 11 1 355
313 314 316 314 315 312 312 310 311 315 308 301 300 299 277 200 231 161 94 32 236 256 267 224 242 268 300 223 220 292 204 256 218 197 248 93 318 58 245 274 1 78 253 332 351 359 358 359 5 4 2 359 2 9
317 319 317 317 316 314 317 323 321 316 306 302 294 219 123 249 148 128 108 176 164 244 268 253 237 252 11 1 305 342 249 239 244 218 260 118 224 252 235 209 204 155 221 356 19 8 2 4 3 2 354 352 358 357
320 320 319 321 321 316 315 319 325 323 300 334 336 15 329 265 229 215 212 199 167 222 213 232 211 232 21 238 229 199 302 276 270 258 178 189 217 241 291 177 154 160 173 180 78 80 356 358 3 25 16 13 3 352
321 319 320 319 321 318 313 313 317 322 348 305 289 291 271 274 239 252 212 211 202 237 179 216 190 177 162 101 100 291 256 299 267 298 182 174 159 172 244 127 136 112 150 149 87 34 31 9 6 19 28 12 0 352
321 318 317 317 316 317 312 303 311 309 303 241 216 236 229 225 241 219 218 214 204 211 180 181 159 145 112 102 144 114 286 257 337 334 317 160 155 144 214 113 88 79 54 126 118 86 89 315 348 45 34 29 3 5
321 319 319 315 312 311 310 321 317 323 287 256 228 245 215 216 229 210 250 268 59 274 75 79 133 139 193 160 159 200 221 59 332 293 303 132 58 307 40 69 67 64 68 46 120 113 134 74 56 42 53 49 33 28
323 320 314 308 353 340 317 302 297 279 275 263 224 240 230 231 274 270 240 257 269 153 128 345 62 125 133 123 227 224 233 244 202 232 214 159 193 260 121 72 35 70 70 29 87 80 80 83 56 15 19 40 57 39
326 318 68 20 345 328 312 301 270 209 242 245 235 265 287 285 276 284 271 351 325 287 116 90 238 154 189 194 176 207 154 219 243 222 232 190 187 191 161 167 180 84 94 43 56 107 91 93 79 39 26 18 77 58
315 221 329 355 344 326 306 273 242 204 236 233 240 258 265 271 276 278 277 252 127 303 255 160 160 225 202 188 189 157 200 217 214 229 204 108 136 196 181 157 138 161 115 87 37 124 100 98 75 61 34 353 49 44
290 304 328 323 329 310 246 208 258 249 234 232 255 250 259 262 268 272 275 281 322 176 227 171 188 216 220 196 209 222 214 202 229 182 100 93 243 214 166 172 148 145 126 252 290 110 110 104 99 107 51 16 60 39
307 307 303 301 305 299 278 229 223 257 260 285 249 256 258 264 259 265 269 265 178 250 152 355 158 192 229 226 244 61 162 196 225 200 169 197 229 175 167 151 173 150 198 188 88 144 140 138 149 114 92 65 81 45
296 290 288 285 204 259 262 256 231 254 265 274 299 273 268 275 284 284 290 275 80 298 220 203 237 235 241 201 164 175 237 226 140 68 293 307 230 136 32 166 147 174 221 183 171 135 141 134 134 125 105 81 80 76
293 256 292 282 215 221 284 269 245 256 262 258 262 288 272 277 289 300 300 301 278 144 311 251 244 251 255 270 234 246 193 163 169 170 203 158 116 207 150 271 219 207 191 109 95 67 122 123 138 130 102 98 83 77
267 295 298 272 243 243 233 232 254 314 310 292 296 271 268 284 283 275 279 280 279 248 198 228 232 235 246 252 231 215 292 251 187 166 114 140 155 185 184 222 216 198 131 146 166 148 134 74 101 123 113 111 94 83
260 226 217 239 245 241 259 240 248 222 244 273 323 312 295 297 280 291 271 250 250 256 264 253 235 220 235 235 166 146 202 229 212 173 157 162 180 186 179 166 174 177 164 124 110 117 126 145 104 121 116 109 123 103
262 255 233 230 206 253 244 240 258 269 271 290 288 285 284 274 272 277 278 280 286 280 279 301 103 85 109 258 316 284 223 198 205 216 170 167 144 107 115 92 210 180 154 157 125 123 129 127 119 101 101 111 100 106
259 227 228 253 247 232 246 259 266 260 261 264 267 269 277 295 299 299 296 296 332 358 353 25 327 310 57 226 201 255 356 35 259 175 136 134 129 118 90 146 128 25 140 150 154 139 130 115 114 108 103 105 114 102
251 237 224 241 230 252 265 269 280 307 314 303 292 299 316 296 275 266 24 7 8 356 344 5 344 315 200 97 47 44 51 347 22 24 228 130 146 161 179 179 162 177 198 167 141 143 146 131 122 124 121 112 106 118
234 246 237 264 279 282 280 279 288 293 282 293 298 305 270 241 20 7 345 32 8 345 347 356 1 330 298 67 62 353 2 48 19 91 76 116 136 174 180 189 180 189 148 138 155 161 143 138 146 151 142 124 112 106
226 245 249 254 259 270 286 297 301 292 278 277 338 347 350 9 227 318 70 149 263 24 16 357 349 321 329 17 22 19 7 8 33 23 38 73 146 169 132 107 70 94 76 111 121 116 139 150 141 128 133 126 122 113
241 251 259 265 271 274 278 273 271 269 293 309 288 285 284 328 336 8 333 307 256 54 34 344 10 337 352 14 40 40 27 21 26 25 46 11 353 310 149 140 137 135 110 86 62 87 105 122 129 123 124 125 122 117
268 250 245 252 257 261 261 258 270 275 269 257 283 291 215 90 36 21 13 13 15 19 16 28 18 3 7 14 357 50 40 28 21 29 47 25 352 315 317 229 143 132 124 111 107 101 88 96 93 109 111 113 122 129
274 279 263 259 263 265 266 270 274 291 284 273 278 271 295 130 99 48 25 15 8 12 11 18 20 22 10 7 4 14 28 13 1 14 5 314 42 1 312 287 69 141 144 139 141 146 141 146 151 124 119 119 114 104
244 252 274 280 282 278 266 267 264 237 258 264 265 285 231 81 72 43 8 6 8 5 357 355 2 7 4 355 11 39 42 6 352 358 14 20 21 19 349 2 38 66 92 75 52 182 144 115 117 127 129 126 120 113
272 263 254 273 282 288 150 168 282 266 227 225 357 59 55 65 73 27 17 7 358 345 333 344 360 357 349 354 24 26 23 41 29 32 30 32 35 35 34 23 15 52 78 97 99 76 96 105 104 109 111 112 115 118